�������l�o���
Date,Time,MP-1(��Sv/h),MP-2(��Sv/h),MP-3(��Sv/h),MP-4(��Sv/h),MP-5(��Sv/h),MP-6(��Sv/h),MP-7(��Sv/h),MP-8(��Sv/h),����,����(m/s),���J
2024/04/22,00:00,0.516,0.789,0.491,0.979,0.703,0.318,0.558,0.521,�k�k��,1.4,��
2024/04/22,00:10,0.515,0.789,0.493,0.978,0.703,0.318,0.558,0.521,�k�k��,1.2,��
2024/04/22,00:20,0.515,0.788,0.491,0.976,0.699,0.318,0.556,0.522,�k,1.1,��
2024/04/22,00:30,0.517,0.785,0.492,0.976,0.703,0.319,0.557,0.521,�k�k��,1.2,��
2024/04/22,00:40,0.515,0.788,0.491,0.977,0.700,0.317,0.559,0.521,�k�k��,1.2,��
2024/04/22,00:50,0.516,0.787,0.492,0.980,0.702,0.317,0.557,0.522,�k,1.7,��
2024/04/22,01:00,0.516,0.789,0.491,0.980,0.700,0.318,0.557,0.521,�k�k��,1.7,��
2024/04/22,01:10,0.516,0.785,0.493,0.978,0.703,0.317,0.557,0.522,�k,2.0,��
2024/04/22,01:20,0.516,0.786,0.493,0.978,0.702,0.317,0.556,0.520,�k,1.7,��
2024/04/22,01:30,0.516,0.788,0.492,0.978,0.702,0.318,0.558,0.520,�k,1.4,��
2024/04/22,01:40,0.516,0.789,0.492,0.977,0.702,0.319,0.558,0.522,�k,0.6,��
2024/04/22,01:50,0.517,0.787,0.490,0.979,0.699,0.320,0.556,0.522,�k,0.9,��
2024/04/22,02:00,0.517,0.788,0.491,0.978,0.702,0.317,0.555,0.521,�k�k��,0.8,��
2024/04/22,02:10,0.516,0.789,0.491,0.979,0.702,0.317,0.557,0.521,�k��,0.6,��
2024/04/22,02:20,0.516,0.788,0.491,0.978,0.702,0.318,0.557,0.520,�k��,0.6,��
2024/04/22,02:30,0.516,0.788,0.489,0.979,0.704,0.319,0.556,0.520,-,CALM,��
2024/04/22,02:40,0.515,0.789,0.492,0.978,0.701,0.318,0.558,0.522,-,CALM,��
2024/04/22,02:50,0.516,0.788,0.492,0.975,0.701,0.318,0.555,0.522,-,CALM,��
2024/04/22,03:00,0.515,0.788,0.492,0.977,0.702,0.319,0.557,0.522,-,CALM,��
2024/04/22,03:10,0.515,0.788,0.493,0.978,0.702,0.319,0.556,0.522,�k,0.6,��
2024/04/22,03:20,0.515,0.787,0.492,0.978,0.702,0.318,0.557,0.522,���k��,0.8,��
2024/04/22,03:30,0.516,0.788,0.491,0.976,0.702,0.319,0.556,0.523,���쓌,0.8,��
2024/04/22,03:40,0.516,0.788,0.492,0.980,0.700,0.318,0.557,0.522,�k�k��,0.8,��
2024/04/22,03:50,0.517,0.789,0.491,0.977,0.704,0.318,0.555,0.521,�k,0.8,��
2024/04/22,04:00,0.515,0.789,0.492,0.978,0.703,0.318,0.556,0.520,�k�k��,0.6,��
2024/04/22,04:10,0.517,0.788,0.492,0.977,0.703,0.319,0.555,0.520,�k�k��,0.9,��
2024/04/22,04:20,0.518,0.788,0.491,0.975,0.701,0.317,0.556,0.522,�k�k��,1.2,��
2024/04/22,04:30,0.516,0.788,0.492,0.976,0.701,0.319,0.556,0.521,�k�k��,0.9,��
2024/04/22,04:40,0.516,0.788,0.491,0.979,0.704,0.318,0.557,0.521,�k,0.9,��
2024/04/22,04:50,0.517,0.786,0.492,0.980,0.703,0.319,0.558,0.520,�k,1.7,��
2024/04/22,05:00,0.517,0.788,0.491,0.979,0.702,0.317,0.555,0.523,�k�k��,2.0,��
2024/04/22,05:10,0.516,0.788,0.492,0.979,0.702,0.320,0.557,0.522,�k�k��,2.0,��
2024/04/22,05:20,0.517,0.788,0.492,0.979,0.703,0.317,0.556,0.520,�k�k��,2.2,��
2024/04/22,05:30,0.516,0.787,0.493,0.977,0.702,0.317,0.556,0.522,�k�k��,2.2,��
2024/04/22,05:40,0.517,0.788,0.491,0.978,0.701,0.318,0.556,0.521,�k�k��,2.5,��
2024/04/22,05:50,0.516,0.788,0.491,0.979,0.703,0.317,0.557,0.523,�k�k��,2.9,��
2024/04/22,06:00,0.516,0.789,0.491,0.978,0.702,0.319,0.557,0.522,�k�k��,2.9,��
2024/04/22,06:10,0.516,0.788,0.491,0.977,0.702,0.318,0.557,0.523,�k��,2.2,��
2024/04/22,06:20,0.516,0.789,0.491,0.977,0.702,0.318,0.557,0.522,�k�k��,1.9,��
2024/04/22,06:30,0.516,0.788,0.491,0.978,0.701,0.317,0.555,0.520,�k�k��,2.0,��
2024/04/22,06:40,0.517,0.787,0.492,0.977,0.702,0.319,0.556,0.521,�k��,1.7,��
2024/04/22,06:50,0.518,0.788,0.493,0.978,0.702,0.319,0.555,0.522,�k�k��,1.7,��
2024/04/22,07:00,0.517,0.787,0.493,0.978,0.702,0.317,0.556,0.521,�k�k��,1.7,��
2024/04/22,07:10,0.516,0.789,0.492,0.979,0.703,0.318,0.556,0.522,�k�k��,1.7,��
2024/04/22,07:20,0.516,0.790,0.492,0.979,0.701,0.318,0.556,0.522,�k�k��,1.2,��
2024/04/22,07:30,0.518,0.789,0.491,0.979,0.701,0.317,0.556,0.522,�k��,1.7,��
2024/04/22,07:40,0.516,0.785,0.492,0.977,0.701,0.317,0.556,0.523,���k��,0.6,��
2024/04/22,07:50,0.516,0.788,0.492,0.978,0.702,0.316,0.556,0.522,�k�k��,0.8,��
2024/04/22,08:00,0.519,0.788,0.492,0.979,0.703,0.317,0.554,0.520,�k�k��,0.8,��
2024/04/22,08:10,0.517,0.787,0.491,0.977,0.702,0.315,0.556,0.521,���k��,1.5,��
2024/04/22,08:20,0.518,0.786,0.490,0.978,0.703,0.316,0.553,0.520,-,CALM,��
2024/04/22,08:30,0.516,0.789,0.493,0.979,0.700,0.314,0.556,0.521,-,CALM,��
2024/04/22,08:40,0.515,0.787,0.493,0.978,0.701,0.315,0.557,0.522,�k��,0.6,��
2024/04/22,08:50,0.516,0.789,0.494,0.978,0.699,0.316,0.556,0.519,�k�k��,0.8,��
2024/04/22,09:00,0.515,0.788,0.493,0.976,0.700,0.317,0.555,0.520,��,1.2,��
2024/04/22,09:10,0.516,0.786,0.492,0.976,0.698,0.315,0.554,0.521,��쓌,1.2,��
2024/04/22,09:20,0.513,0.786,0.493,0.979,0.701,0.316,0.554,0.518,�쓌,0.6,��
2024/04/22,09:30,0.513,0.786,0.491,0.979,0.699,0.315,0.555,0.519,�k��,1.4,��
2024/04/22,09:40,0.514,0.785,0.491,0.979,0.700,0.318,0.554,0.520,���쓌,0.9,��
2024/04/22,09:50,0.513,0.786,0.491,0.978,0.698,0.316,0.556,0.521,���쓌,1.1,��
2024/04/22,10:00,0.513,0.784,0.490,0.977,0.697,0.315,0.555,0.520,�쓌,1.2,��
2024/04/22,10:10,0.514,0.784,0.491,0.977,0.699,0.316,0.555,0.520,���쓌,1.2,��
2024/04/22,10:20,0.513,0.785,0.488,0.977,0.697,0.315,0.555,0.520,��쓌,0.6,��
2024/04/22,10:30,0.514,0.784,0.490,0.978,0.698,0.315,0.555,0.519,-,CALM,��
2024/04/22,10:40,0.513,0.784,0.488,0.977,0.696,0.316,0.556,0.519,���쓌,1.7,��
2024/04/22,10:50,0.514,0.784,0.489,0.979,0.700,0.315,0.556,0.520,���쓌,1.9,��
2024/04/22,11:00,0.515,0.785,0.489,0.978,0.702,0.315,0.556,0.519,��,2.6,��
2024/04/22,11:10,0.515,0.784,0.491,0.980,0.700,0.316,0.554,0.521,��,2.5,��
2024/04/22,11:20,0.514,0.785,0.491,0.977,0.700,0.315,0.556,0.520,��,2.2,��
2024/04/22,11:30,0.515,0.786,0.489,0.977,0.700,0.316,0.556,0.519,��,1.9,��
2024/04/22,11:40,0.515,0.785,0.490,0.980,0.702,0.316,0.556,0.520,���k��,2.0,��
2024/04/22,11:50,0.515,0.787,0.490,0.978,0.701,0.316,0.555,0.520,��,2.3,��
2024/04/22,12:00,0.515,0.785,0.490,0.977,0.700,0.316,0.556,0.520,��,3.1,��
2024/04/22,12:10,0.513,0.788,0.491,0.977,0.701,0.316,0.556,0.521,��,3.4,��
2024/04/22,12:20,0.513,0.789,0.491,0.978,0.700,0.315,0.556,0.520,��,3.4,��
2024/04/22,12:30,0.516,0.785,0.491,0.980,0.700,0.315,0.556,0.519,��,3.0,��
2024/04/22,12:40,0.516,0.786,0.492,0.980,0.700,0.316,0.556,0.521,���쓌,3.8,��
2024/04/22,12:50,0.514,0.786,0.491,0.982,0.702,0.316,0.555,0.521,���쓌,3.4,��
2024/04/22,13:00,0.517,0.787,0.491,0.980,0.702,0.316,0.557,0.520,��,2.9,��
2024/04/22,13:10,0.517,0.786,0.492,0.979,0.703,0.316,0.554,0.519,���쓌,3.3,��
2024/04/22,13:20,0.517,0.787,0.491,0.978,0.702,0.317,0.556,0.519,���쓌,4.0,��
2024/04/22,13:30,0.518,0.786,0.491,0.978,0.703,0.316,0.558,0.518,��,3.4,��
2024/04/22,13:40,0.516,0.786,0.491,0.977,0.703,0.316,0.558,0.521,��,3.8,��
2024/04/22,13:50,0.516,0.787,0.491,0.981,0.701,0.316,0.556,0.521,���쓌,3.7,��
2024/04/22,14:00,0.516,0.787,0.491,0.979,0.702,0.317,0.556,0.520,���쓌,3.8,��
2024/04/22,14:10,0.516,0.787,0.491,0.979,0.703,0.316,0.557,0.521,��,3.6,��
2024/04/22,14:20,0.516,0.787,0.491,0.981,0.702,0.316,0.557,0.520,���쓌,3.4,��
2024/04/22,14:30,0.516,0.787,0.491,0.980,0.701,0.320,0.558,0.519,��,3.3,��
2024/04/22,14:40,0.517,0.786,0.491,0.983,0.703,0.316,0.557,0.521,���쓌,3.4,��
2024/04/22,14:50,0.515,0.786,0.494,0.981,0.701,0.316,0.558,0.520,��,3.2,��
2024/04/22,15:00,0.515,0.787,0.491,0.980,0.703,0.318,0.557,0.519,���쓌,4.0,��
2024/04/22,15:10,0.516,0.786,0.491,0.979,0.701,0.316,0.557,0.519,���쓌,4.1,��
2024/04/22,15:20,0.515,0.786,0.491,0.979,0.704,0.315,0.557,0.521,���쓌,3.3,��
2024/04/22,15:30,0.516,0.787,0.491,0.977,0.703,0.316,0.558,0.520,���쓌,3.6,��
2024/04/22,15:40,0.516,0.788,0.491,0.978,0.702,0.316,0.559,0.521,���쓌,3.2,��
2024/04/22,15:50,0.515,0.785,0.491,0.978,0.703,0.317,0.559,0.520,���쓌,2.9,��
2024/04/22,16:00,0.514,0.788,0.492,0.977,0.704,0.316,0.558,0.521,���쓌,3.4,��
2024/04/22,16:10,0.515,0.787,0.491,0.979,0.703,0.316,0.559,0.520,���쓌,3.3,��
2024/04/22,16:20,0.516,0.787,0.491,0.978,0.702,0.317,0.558,0.520,���쓌,2.6,��
2024/04/22,16:30,0.516,0.788,0.491,0.978,0.703,0.317,0.558,0.520,���쓌,2.9,��
2024/04/22,16:40,0.516,0.788,0.492,0.978,0.701,0.318,0.558,0.519,���쓌,2.6,��
2024/04/22,16:50,0.515,0.788,0.490,0.981,0.702,0.318,0.557,0.520,���쓌,2.2,��
2024/04/22,17:00,0.514,0.788,0.492,0.981,0.703,0.318,0.558,0.520,���쓌,2.5,��
2024/04/22,17:10,0.516,0.788,0.490,0.980,0.702,0.317,0.558,0.518,���쓌,3.0,��
2024/04/22,17:20,0.515,0.788,0.491,0.979,0.701,0.317,0.559,0.519,���쓌,2.6,��
2024/04/22,17:30,0.515,0.788,0.492,0.982,0.702,0.316,0.559,0.521,���쓌,1.7,��
2024/04/22,17:40,0.513,0.789,0.492,0.980,0.703,0.318,0.557,0.520,���쓌,2.0,��
2024/04/22,17:50,0.514,0.788,0.491,0.983,0.702,0.318,0.557,0.520,���쓌,1.7,��
2024/04/22,18:00,0.516,0.790,0.493,0.981,0.702,0.317,0.556,0.520,���쓌,2.0,��
2024/04/22,18:10,0.516,0.789,0.494,0.982,0.700,0.318,0.557,0.521,���쓌,1.2,��
2024/04/22,18:20,0.517,0.789,0.493,0.982,0.701,0.317,0.557,0.521,��,0.6,��
2024/04/22,18:30,0.516,0.791,0.494,0.982,0.704,0.317,0.557,0.519,���쓌,0.8,��
2024/04/22,18:40,0.517,0.788,0.493,0.981,0.702,0.317,0.558,0.519,-,CALM,��
2024/04/22,18:50,0.516,0.791,0.494,0.982,0.703,0.317,0.557,0.520,��,0.9,��
2024/04/22,19:00,0.517,0.789,0.493,0.983,0.703,0.317,0.556,0.520,��,0.6,��
2024/04/22,19:10,0.514,0.790,0.492,0.983,0.700,0.317,0.556,0.521,��,1.7,��
2024/04/22,19:20,0.516,0.792,0.493,0.981,0.703,0.317,0.558,0.521,��,1.5,��
2024/04/22,19:30,0.518,0.789,0.493,0.982,0.702,0.318,0.557,0.520,��,1.5,��
2024/04/22,19:40,0.517,0.788,0.494,0.981,0.704,0.318,0.557,0.520,��,1.7,��
2024/04/22,19:50,0.517,0.791,0.493,0.981,0.702,0.318,0.557,0.521,���k��,1.2,��
2024/04/22,20:00,0.517,0.790,0.492,0.982,0.703,0.318,0.556,0.522,���k��,1.5,��
2024/04/22,20:10,0.518,0.789,0.493,0.981,0.705,0.317,0.558,0.522,��,2.2,��
2024/04/22,20:20,0.519,0.789,0.493,0.979,0.702,0.318,0.557,0.520,��,1.7,��
2024/04/22,20:30,0.517,0.791,0.493,0.980,0.703,0.318,0.558,0.522,��,1.4,��
2024/04/22,20:40,0.517,0.790,0.493,0.980,0.703,0.318,0.557,0.522,���k��,1.5,�L
2024/04/22,20:50,0.517,0.791,0.494,0.981,0.703,0.317,0.557,0.523,���k��,2.0,�L
2024/04/22,21:00,0.516,0.792,0.495,0.980,0.704,0.317,0.559,0.520,���k��,2.6,�L
2024/04/22,21:10,0.518,0.790,0.494,0.981,0.704,0.316,0.557,0.523,���k��,3.5,�L
2024/04/22,21:20,0.517,0.790,0.494,0.980,0.704,0.318,0.557,0.521,�k��,3.0,�L
2024/04/22,21:30,0.517,0.788,0.492,0.980,0.703,0.318,0.557,0.522,���k��,1.7,��
2024/04/22,21:40,0.516,0.791,0.492,0.981,0.703,0.318,0.557,0.523,���k��,1.7,�L
2024/04/22,21:50,0.516,0.790,0.491,0.979,0.703,0.317,0.558,0.522,�k��,2.3,�L
2024/04/22,22:00,0.517,0.790,0.493,0.981,0.704,0.317,0.556,0.522,���k��,2.2,�L
2024/04/22,22:10,0.517,0.789,0.494,0.983,0.703,0.319,0.556,0.521,���k��,2.9,�L
2024/04/22,22:20,0.516,0.789,0.492,0.980,0.704,0.319,0.557,0.520,�k��,3.0,�L
2024/04/22,22:30,0.516,0.788,0.493,0.981,0.704,0.319,0.554,0.522,�k��,3.2,�L
2024/04/22,22:40,0.516,0.786,0.491,0.977,0.703,0.318,0.555,0.522,�k�k��,2.3,�L
2024/04/22,22:50,0.516,0.783,0.489,0.975,0.699,0.317,0.554,0.520,�k�k��,2.0,�L
2024/04/22,23:00,0.515,0.780,0.487,0.973,0.697,0.318,0.552,0.520,�k�k��,2.0,�L
2024/04/22,23:10,0.513,0.780,0.487,0.974,0.696,0.318,0.553,0.521,�k,2.9,�L
2024/04/22,23:20,0.512,0.779,0.487,0.970,0.694,0.317,0.551,0.522,�k,1.7,�L
2024/04/22,23:30,0.511,0.778,0.487,0.964,0.691,0.316,0.550,0.517,�k,3.6,�L
2024/04/22,23:40,0.509,0.777,0.486,0.963,0.691,0.317,0.551,0.518,�k,3.7,�L
2024/04/22,23:50,0.510,0.776,0.486,0.963,0.690,0.315,0.549,0.517,�k,4.2,�L
